Location: *
(44.3925°N, 5.4708°E)
Time: 09:31:33
(UTC+00:00)

Cosmos 1371 Rocket - Pass Details

Date: 18 September 2019
Orbit: 753 x 790 km, 74.0° (Epoch: 19 October)

Event Time Altitude Azimuth Distance (km) Brightness Sun altitude
Rises 18:48:41 0° 176° (S) 3,235 7.0 -12.3°
Reaches altitude 10° 18:51:10 10° 168° (SSE) 2,318 6.2 -12.7°
Maximum altitude 18:56:00 38° 102° (ESE) 1,186 4.5 -13.5°
Drops below altitude 10° 19:00:54 10° 36° (NE) 2,353 6.3 -14.4°
Sets 19:03:26 0° 28° (NNE) 3,290 7.2 -14.8°
